Kinston, NC

5:13 PM EST on December 08, 2016 (GMT -0500)
Kinston Regional Jetport / Stallings Field

Weather History for KISO - September, 2013

Change the Weather History Date:

Saturday, September 21, 2013

  Actual Average Record
Temperature  
Mean Temperature 70 °F -  
Max Temperature 77 °F 79 °F 93 °F (1974)
Min Temperature 63 °F 62 °F 48 °F (1981)
Cooling Degree Days 5    
Growing Degree Days 20 (Base 50)    
Moisture  
Dew Point 66 °F    
Average Humidity 92    
Maximum Humidity 100    
Minimum Humidity 78    
Precipitation  
Precipitation 0.01 in - - ()
Sea Level Pressure  
Sea Level Pressure 29.89 in    
Wind  
Wind Speed 1 mph (South)    
Max Wind Speed 8 mph    
Max Gust Speed -    
Visibility 8 miles    
Events Rain    
Averages and records for this station are not official NWS values.
T = Trace of Precipitation, MM = Missing Value Source: NWS Daily Summary

Daily Weather History Graph

Daily Weather History Graph

Search for Another Location

Airport or City:

Trip Planner

Search our weather history database for the weather conditions in past years. The results will help you decide how hot, cold, wet, or windy it might be!

Date:

Astronomy

Sep. 21, 2013 Rise Set
Actual Time 6:57 AM EDT 7:08 PM EDT
Civil Twilight 6:32 AM EDT 7:33 PM EDT
Nautical Twilight 6:02 AM EDT 8:03 PM EDT
Astronomical Twilight 5:32 AM EDT 8:33 PM EDT
Moon 8:25 PM EDT (9/21) 9:07 AM EDT (9/21)
Length of Visible Light 13h 01m
Length of Day
12h 10m
Waning Gibbous, 94% of the Moon is Illuminated
Sep 21
Waning Gibbous
Sep 26
Last Quarter
Oct 4
New
Oct 11
First Quarter
Oct 18
Full

Hourly Weather History & Observations

Time (EDT) Temp. Dew Point Humidity Pressure Visibility Wind Dir Wind Speed Gust Speed Precip Events Conditions
12:15 AM 67.5 °F 63.7 °F 88% 29.99 in 10.0 mi Calm Calm - N/A   Scattered Clouds
12:35 AM 68.4 °F 63.3 °F 84% 29.99 in 10.0 mi Calm Calm - N/A   Scattered Clouds
12:55 AM 68.5 °F 63.1 °F 83% 29.99 in 10.0 mi Calm Calm - N/A   Mostly Cloudy
1:15 AM 66.7 °F 63.5 °F 89% 29.99 in 10.0 mi Calm Calm - N/A   Scattered Clouds
1:35 AM 66.0 °F 63.5 °F 92% 29.99 in 10.0 mi Calm Calm - N/A   Mostly Cloudy
1:55 AM 65.5 °F 63.3 °F 93% 29.98 in 10.0 mi Calm Calm - N/A   Scattered Clouds
2:15 AM 64.0 °F 62.2 °F 94% 29.98 in 10.0 mi Calm Calm - N/A   Scattered Clouds
2:35 AM 63.5 °F 62.1 °F 95% 29.98 in 7.0 mi Calm Calm - N/A   Mostly Cloudy
2:55 AM 64.4 °F 63.1 °F 96% 29.97 in 10.0 mi Calm Calm - N/A   Mostly Cloudy
3:15 AM 63.9 °F 62.6 °F 96% 29.97 in 10.0 mi Calm Calm - N/A   Mostly Cloudy
3:35 AM 64.4 °F 63.3 °F 96% 29.97 in 10.0 mi Calm Calm - N/A   Overcast
3:55 AM 64.8 °F 63.5 °F 96% 29.97 in 10.0 mi Calm Calm - N/A   Overcast
4:15 AM 64.9 °F 63.5 °F 95% 29.97 in 10.0 mi Calm Calm - N/A   Mostly Cloudy
4:35 AM 65.1 °F 63.5 °F 94% 29.97 in 10.0 mi Calm Calm - N/A   Scattered Clouds
4:55 AM 65.3 °F 63.7 °F 94% 29.96 in 10.0 mi Calm Calm - N/A   Mostly Cloudy
5:15 AM 65.3 °F 63.7 °F 94% 29.96 in 10.0 mi Calm Calm - N/A   Scattered Clouds
5:35 AM 64.9 °F 63.7 °F 96% 29.96 in 7.0 mi Calm Calm - N/A   Clear
5:55 AM 65.3 °F 64.0 °F 96% 29.95 in 10.0 mi Calm Calm - N/A   Clear
6:15 AM 65.7 °F 64.2 °F 95% 29.94 in 10.0 mi Calm Calm - N/A   Scattered Clouds
6:35 AM 65.3 °F 63.9 °F 95% 29.94 in 10.0 mi Calm Calm - N/A   Scattered Clouds
6:55 AM 64.8 °F 63.7 °F 96% 29.94 in 7.0 mi Calm Calm - N/A   Mostly Cloudy
6:56 AM 64.4 °F 64.4 °F 100% 29.94 in 7.0 mi Calm Calm - N/A   Mostly Cloudy
7:56 AM 66.2 °F 64.4 °F 94% 29.94 in 7.0 mi Calm Calm - N/A   Scattered Clouds
8:56 AM 69.8 °F 64.4 °F 83% 29.94 in 10.0 mi Calm Calm - N/A   Scattered Clouds
9:56 AM 69.8 °F 66.2 °F 88% 29.94 in 4.0 mi Calm Calm - N/A   Light Drizzle
11:56 AM 69.8 °F 68.0 °F 94% 29.91 in 3.0 mi South 4.6 mph - N/A Rain Rain
12:56 PM 69.8 °F 68.0 °F 94% 29.89 in 7.0 mi SSE 3.5 mph - N/A   Mostly Cloudy
1:56 PM 71.6 °F 69.8 °F 94% 29.86 in 7.0 mi South 3.5 mph - N/A   Mostly Cloudy
2:56 PM 73.4 °F 69.8 °F 88% 29.83 in 7.0 mi SSE 6.9 mph - N/A   Scattered Clouds
3:56 PM 77.0 °F 69.8 °F 78% 29.81 in 7.0 mi SSE 8.1 mph - N/A   Scattered Clouds
4:56 PM 77.0 °F 69.8 °F 78% 29.79 in 7.0 mi SSE 6.9 mph - N/A   Scattered Clouds
5:56 PM 75.2 °F 69.8 °F 83% 29.79 in 7.0 mi SSE 8.1 mph - N/A   Clear
6:56 PM 73.4 °F 69.8 °F 88% 29.78 in 7.0 mi South 8.1 mph - N/A   Clear
7:56 PM 73.4 °F 69.8 °F 88% 29.77 in 7.0 mi South 5.8 mph - N/A   Light Drizzle
8:56 PM 71.6 °F 69.8 °F 94% 29.78 in 7.0 mi South 5.8 mph - N/A   Drizzle
9:15 PM 72.1 °F 70.7 °F 95% 29.78 in 10.0 mi South 5.8 mph - N/A   Drizzle
9:35 PM 72.0 °F 70.3 °F 95% 29.78 in 7.0 mi South 4.6 mph - N/A Rain Rain
9:55 PM 71.8 °F 70.3 °F 95% 29.77 in 7.0 mi South 3.5 mph - N/A   Drizzle
9:56 PM 71.6 °F 69.8 °F 94% 29.77 in 7.0 mi South 3.5 mph - N/A   Drizzle
10:15 PM 71.8 °F 70.3 °F 95% 29.77 in 5.0 mi Calm Calm - N/A   Drizzle
10:35 PM 71.8 °F 70.7 °F 96% 29.77 in 4.0 mi SSE 3.5 mph - N/A   Light Drizzle
10:55 PM 71.8 °F 70.7 °F 96% 29.76 in 7.0 mi SSE 4.6 mph - 0.01 in   Light Drizzle
11:15 PM 71.8 °F 70.7 °F 96% 29.76 in 7.0 mi South 4.6 mph - N/A Rain Light Rain
11:35 PM 71.8 °F 70.7 °F 96% 29.77 in 7.0 mi South 4.6 mph - N/A Rain Light Rain
11:55 PM 71.6 °F 70.3 °F 96% 29.76 in 7.0 mi South 3.5 mph - N/A Rain Light Rain